| time (UTC) | temp C | wind direction | speed KPH | gust KPH | rain 1hr cm | rain 24hr cm | rain mn cm | humidity % | barometer mb |
| 20260504215049 | 23 | 157 | 3.2 | 11.3 | 0.00 | 0.00 | 0.00 | 44 | 1010.0 |
| 20260504214040 | 23 | 88 | 1.6 | 8.0 | 0.00 | 0.00 | 0.00 | 43 | 1009.9 |
| 20260504213030 | 23 | 101 | 1.6 | 9.7 | 0.00 | 0.00 | 0.00 | 42 | 1010.1 |
| 20260504212013 | 23 | 114 | 4.8 | 17.7 | 0.00 | 0.00 | 0.00 | 42 | 1010.2 |
| 20260504211027 | 23 | 112 | 1.6 | 12.9 | 0.00 | 0.00 | 0.00 | 41 | 1010.1 |
| 20260504210014 | 23 | 135 | 3.2 | 11.3 | 0.00 | 0.00 | 0.00 | 41 | 1009.9 |
| 20260504205029 | 23 | 161 | 0.0 | 11.3 | 0.00 | 0.00 | 0.00 | 42 | 1010.2 |
| 20260504204022 | 23 | 114 | 3.2 | 11.3 | 0.00 | 0.00 | 0.00 | 40 | 1010.2 |
| 20260504203016 | 23 | 150 | 1.6 | 11.3 | 0.00 | 0.00 | 0.00 | 42 | 1010.2 |
| 20260504202031 | 24 | 152 | 1.6 | 8.0 | 0.00 | 0.00 | 0.00 | 39 | 1010.3 |
| 20260504201025 | 24 | 102 | 1.6 | 11.3 | 0.00 | 0.00 | 0.00 | 39 | 1010.3 |
| 20260504200013 | 24 | 118 | 0.0 | 6.4 | 0.00 | 0.00 | 0.00 | 44 | 1010.5 |
| 20260504195026 | 23 | 176 | 0.0 | 9.7 | 0.00 | 0.00 | 0.00 | 40 | 1010.8 |
| 20260504194039 | 23 | 124 | 1.6 | 12.9 | 0.00 | 0.00 | 0.00 | 43 | 1011.0 |
| 20260504193024 | 23 | 100 | 4.8 | 11.3 | 0.00 | 0.00 | 0.00 | 38 | 1011.1 |
| 20260504192018 | 23 | 152 | 0.0 | 6.4 | 0.00 | 0.00 | 0.00 | 40 | 1011.2 |
| 20260504191012 | 23 | 101 | 1.6 | 12.9 | 0.00 | 0.00 | 0.00 | 41 | 1011.3 |
| 20260504190020 | 23 | 110 | 3.2 | 12.9 | 0.00 | 0.00 | 0.00 | 39 | 1011.5 |
| 20260504185014 | 23 | 109 | 3.2 | 11.3 | 0.00 | 0.00 | 0.00 | 40 | 1011.5 |
| 20260504184029 | 23 | 185 | 0.0 | 11.3 | 0.00 | 0.00 | 0.00 | 41 | 1011.7 |
| 20260504183024 | 23 | 112 | 1.6 | 6.4 | 0.00 | 0.00 | 0.00 | 40 | 1011.8 |
| 20260504182038 | 23 | 99 | 3.2 | 12.9 | 0.00 | 0.00 | 0.00 | 40 | 1011.9 |
| 20260504181023 | 23 | 288 | 1.6 | 11.3 | 0.00 | 0.00 | 0.00 | 36 | 1011.9 |
| 20260504180040 | 24 | 252 | 1.6 | 14.5 | 0.00 | 0.00 | 0.00 | 38 | 1012.1 |
| 20260504175025 | 23 | 109 | 0.0 | 12.9 | 0.00 | 0.00 | 0.00 | 38 | 1012.2 |
| 20260504174019 | 23 | 259 | 0.0 | 9.7 | 0.00 | 0.00 | 0.00 | 36 | 1012.4 |
| 20260504173031 | 23 | 167 | 1.6 | 14.5 | 0.00 | 0.00 | 0.00 | 35 | 1012.5 |
| 20260504172025 | 23 | 242 | 6.4 | 17.7 | 0.00 | 0.00 | 0.00 | 36 | 1012.7 |
| 20260504171020 | 22 | 235 | 3.2 | 20.9 | 0.00 | 0.00 | 0.00 | 35 | 1012.8 |
| 20260504151021 | 21 | 305 | 0.0 | 11.3 | 0.00 | 0.00 | 0.00 | 47 | 1014.0 |
| 20260504141038 | 16 | 257 | 0.0 | 3.2 | 0.00 | 0.00 | 0.00 | 53 | 1014.3 |
| 20260504081038 | 10 | 238 | 0.0 | 0.0 | 0.00 | 0.00 | 0.00 | 66 | 1015.4 |
| 20260504050024 | 8 | 238 | 0.0 | 0.0 | 0.00 | 0.00 | 0.00 | 68 | 1015.6 |
| 20260504045035 | 8 | 238 | 0.0 | 0.0 | 0.00 | 0.00 | 0.00 | 67 | 1015.7 |
| 20260504044028 | 8 | 238 | 0.0 | 0.0 | 0.00 | 0.00 | 0.00 | 67 | 1015.9 |
| 20260504043022 | 8 | 238 | 0.0 | 0.0 | 0.00 | 0.00 | 0.00 | 68 | 1015.8 |
| 20260504042034 | 8 | 238 | 0.0 | 0.0 | 0.00 | 0.00 | 0.00 | 68 | 1015.8 |
| 20260504041019 | 8 | 238 | 0.0 | 0.0 | 0.00 | 0.00 | 0.00 | 68 | 1015.8 |
| 20260504040036 | 8 | 238 | 0.0 | 0.0 | 0.00 | 0.00 | 0.00 | 68 | 1015.7 |
| 20260504035029 | 8 | 238 | 0.0 | 0.0 | 0.00 | 0.00 | 0.00 | 67 | 1015.7 |
| 20260504034013 | 8 | 240 | 0.0 | 0.0 | 0.00 | 0.00 | 0.00 | 66 | 1015.6 |
| 20260504033028 | 8 | 240 | 0.0 | 0.0 | 0.00 | 0.00 | 0.00 | 65 | 1015.3 |
| 20260504032022 | 8 | 240 | 0.0 | 0.0 | 0.00 | 0.00 | 0.00 | 64 | 1015.3 |
| 20260504031013 | 8 | 240 | 0.0 | 0.0 | 0.00 | 0.00 | 0.00 | 64 | 1015.1 |
| 20260504030050 | 8 | 240 | 0.0 | 0.0 | 0.00 | 0.00 | 0.00 | 64 | 1015.3 |
| 20260504025013 | 8 | 240 | 0.0 | 0.0 | 0.00 | 0.00 | 0.00 | 63 | 1015.2 |
| 20260504024056 | 9 | 240 | 0.0 | 0.0 | 0.00 | 0.00 | 0.00 | 63 | 1015.1 |
| 20260504023049 | 9 | 240 | 0.0 | 0.0 | 0.00 | 0.00 | 0.00 | 63 | 1015.1 |
| 20260504022024 | 10 | 240 | 0.0 | 0.0 | 0.00 | 0.00 | 0.00 | 61 | 1015.1 |
| 20260504021037 | 10 | 240 | 0.0 | 0.0 | 0.00 | 0.00 | 0.00 | 61 | 1015.0 |
| 20260504020024 | 10 | 240 | 0.0 | 0.0 | 0.00 | 0.00 | 0.00 | 61 | 1015.0 |
| 20260504015037 | 10 | 240 | 0.0 | 0.0 | 0.00 | 0.00 | 0.00 | 59 | 1014.8 |
| 20260504014022 | 10 | 240 | 0.0 | 0.0 | 0.00 | 0.00 | 0.00 | 58 | 1014.9 |
| 20260504013101 | 11 | 240 | 0.0 | 0.0 | 0.00 | 0.00 | 0.00 | 57 | 1014.9 |
| 20260504012026 | 11 | 240 | 0.0 | 0.0 | 0.00 | 0.00 | 0.00 | 56 | 1014.8 |
| 20260504011020 | 11 | 240 | 0.0 | 0.0 | 0.00 | 0.00 | 0.00 | 55 | 1014.7 |
| 20260504010056 | 12 | 240 | 0.0 | 0.0 | 0.00 | 0.00 | 0.00 | 53 | 1014.7 |
| 20260504005020 | 12 | 240 | 0.0 | 0.0 | 0.00 | 0.00 | 0.00 | 52 | 1014.6 |
| 20260504004014 | 13 | 240 | 0.0 | 0.0 | 0.00 | 0.00 | 0.00 | 51 | 1014.4 |
| 20260504003028 | 13 | 240 | 0.0 | 0.0 | 0.00 | 0.00 | 0.00 | 50 | 1014.4 |
| 20260504002024 | 13 | 240 | 0.0 | 0.0 | 0.00 | 0.00 | 0.00 | 47 | 1014.3 |
| 20260504001018 | 14 | 240 | 0.0 | 0.0 | 0.00 | 0.00 | 0.00 | 46 | 1014.3 |
| 20260504000027 | 15 | 240 | 0.0 | 0.0 | 0.00 | 0.00 | 0.00 | 43 | 1014.2 |
| 20260503235021 | 16 | 240 | 0.0 | 6.4 | 0.00 | 0.00 | 0.00 | 39 | 1014.1 |
| 20260503234035 | 16 | 97 | 0.0 | 4.8 | 0.00 | 0.00 | 0.00 | 35 | 1014.0 |
| 20260503233020 | 16 | 278 | 1.6 | 8.0 | 0.00 | 0.00 | 0.00 | 34 | 1013.8 |
| 20260503232013 | 16 | 267 | 0.0 | 8.0 | 0.00 | 0.00 | 0.00 | 33 | 1013.9 |
| 20260503231028 | 17 | 270 | 3.2 | 12.9 | 0.00 | 0.00 | 0.00 | 33 | 1014.0 |
| 20260503230013 | 17 | 257 | 3.2 | 11.3 | 0.00 | 0.00 | 0.00 | 33 | 1013.8 |
| 20260503225027 | 17 | 267 | 4.8 | 12.9 | 0.00 | 0.00 | 0.00 | 33 | 1013.9 |
| 20260503224021 | 17 | 264 | 3.2 | 16.1 | 0.00 | 0.00 | 0.00 | 33 | 1013.9 |
| 20260503223015 | 17 | 344 | 1.6 | 12.9 | 0.00 | 0.00 | 0.00 | 32 | 1013.9 |
| 20260503222030 | 17 | 230 | 4.8 | 24.1 | 0.00 | 0.00 | 0.00 | 31 | 1013.9 |
| 20260503221015 | 17 | 228 | 3.2 | 14.5 | 0.00 | 0.00 | 0.00 | 32 | 1014.0 |
| 20260503220033 | 17 | 236 | 6.4 | 14.5 | 0.00 | 0.00 | 0.00 | 31 | 1014.0 |